Flag for Canada Weather past 2 weeks in Windsor, Ontario, Canada

32 °F

Passing clouds.

Feels Like: 26 °F
Forecast: 29 / 44 °F
Wind: 6 mph from East

Location: Windsor Weather Station

Current Time: Nov 29, 2015 at 8:43:23 PM

Latest Report: Nov 29, 2015 at 8:00 PM

Visibility: 15 mi

Pressure: 30.39 "Hg

Humidity: 87%

Dew point: 28 °F

Location of WindsorLocation

Historic Weather in Windsor — Graph


Windsor temperature yesterday

Maximum temperature yesterday: 37 °F (at 1:00 PM)
Minimum temperature yesterday: 30 °F (at 10:00 PM)
Average temperature yesterday: 35 °F

Past Weeks' High & Low Weather Summary

High63 °F (Nov 15, 3:00 PM)100% (Nov 17, 6:00 AM)30.48 "Hg (Nov 17, 6:00 AM)
Low19 °F (Nov 22, 11:00 PM)29% (Nov 19, 6:00 PM)29.70 "Hg (Nov 19, 12:00 AM)
Average42 °F74%30.19 "Hg
* Reported Nov 14 7:00 PM — Nov 29 7:00 PM, Windsor, Weather by CustomWeather, © 2015

Note: Actual official high and low records may vary slightly from our data, if they occured in-between our weather recording intervals... More about our weather records


Windsor weather history for previous 24 hours

Time TempWeatherWind HumidityBarometerVisibility
7:00 PM
Sun, Nov 29
32 °FPassing clouds.9 mph87%30.39 "Hg15 mi
6:00 PM32 °FMostly cloudy.9 mph87%30.37 "Hg8 mi
5:00 PM32 °FOvercast.6 mph87%30.37 "Hg5 mi
4:00 PM34 °FPartly sunny.9 mph75%30.36 "Hg15 mi
3:00 PM36 °FPartly sunny.10 mph75%30.36 "Hg15 mi
2:00 PM36 °FBroken clouds.8 mph81%30.37 "Hg15 mi
1:00 PM36 °FPartly sunny.10 mph75%30.36 "Hg15 mi
12:00 PM36 °FPartly sunny.8 mph75%30.38 "Hg15 mi
11:00 AM34 °FPartly sunny.5 mph81%30.41 "Hg15 mi
10:00 AM30 °FPassing clouds.3 mph80%30.41 "Hg15 mi
9:00 AM27 °FPassing clouds.6 mph86%30.40 "Hg15 mi
8:00 AM25 °FPassing clouds.3 mph86%30.39 "Hg15 mi
7:00 AM25 °FPassing clouds.5 mph86%30.37 "Hg15 mi
6:00 AM25 °FClear.5 mph80%30.36 "Hg15 mi
5:00 AM27 °FClear.7 mph80%30.36 "Hg15 mi
4:00 AM27 °FClear.7 mph80%30.35 "Hg15 mi
3:00 AM27 °FPassing clouds.6 mph86%30.36 "Hg15 mi
2:00 AM27 °FPassing clouds.6 mph86%30.36 "Hg15 mi
1:00 AM28 °FPassing clouds.6 mph86%30.36 "Hg15 mi
12:00 AM28 °FPassing clouds.7 mph86%30.37 "Hg15 mi
11:00 PM
Sat, Nov 28
30 °FPassing clouds.7 mph86%30.35 "Hg15 mi
10:00 PM30 °FPartly cloudy.7 mph86%30.35 "Hg15 mi
9:00 PM32 °FPassing clouds.6 mph80%30.37 "Hg15 mi
8:00 PM32 °FPassing clouds.6 mph80%30.34 "Hg15 mi
Weather by CustomWeather, © 2015

See weather overviewHow to use our weather pages